Location: Ottawa
(45.4167°N, 75.7000°W)
Time: 11:00:46
(UTC-04:00)

ISS - Pass Details

Date: 09 October 2017
Orbit: 401 x 408 km, 51.6° (Epoch: 18 October)

Event Time Altitude Azimuth Distance (km) Brightness Sun altitude
Rises 18:56:59 0° 295° (WNW) 2,324 1.3 -5.9°
Reaches altitude 10° 18:59:14 10° 307° (NW) 1,465 -0.2 -6.3°
Maximum altitude 19:02:10 30° 10° (N) 766 -2.5 -6.9°
Drops below altitude 10° 19:05:07 10° 74° (ENE) 1,467 -1.6 -7.4°
Enters shadow 19:05:15 - 75° (ENE) 1,514 -1.6 -7.4°
